Regional Weather Roundup
Issued by NWS

Home | Current Version | Previous Version | Graphics & Text | Print | Product List | Glossary On
Versions: 1 2 3 4 5 6 7 8 9 10 11 12 13 14 15 16 17 18 19 20 21 22 23 24 25 26 27 28 29 30 31 32 33 34 35 36 37 38 39 40 41 42 43 44 45 46 47 48 49 50
000
ASUS45 KABQ 272101
RWRNM
NEW MEXICO REGIONAL WEATHER ROUNDUP
NATIONAL WEATHER SERVICE ALBUQUERQUE NM
300 PM MDT THU AUG 27 2015

NOTE: "FAIR" MEANS FEW OR NO CLOUDS BELOW 12,000 FEET AGL WITH NO
       SIGNIFICANT WEATHER OR OBSTRUCTIONS TO VISION.

      THIS PRODUCT IS RELEASED AS TWO VERSIONS.  ONE VERSION NEAR
      THE TOP OF THE HOUR CONTAINING PRELIMINARY DATA FROM ALBUQUERQUE
      AND OTHER STATIONS.  A FINAL VERSION WITH ADDITIONAL DATA IS
      ISSUED ABOUT 10 MINUTES AFTER THE HOUR.

NMZ501-503-504-510>518-272200-
NORTHWEST PLATEAU/NORTHCENTRAL MOUNTAINS

CITY           SKY/WX    TMP DP  RH WIND       PRES   REMARKS
FARMINGTON     FAIR      81  56  42 SW8       30.23F
SANTA FE       FAIR      79  53  40 VRB7      30.26F
TAOS           FAIR      79  46  31 W20G25    30.31F

$$
NMZ402-403-502-505>509-272200-
WESTCENTRAL MOUNTAINS/SOUTHWEST MOUNTAINS

CITY           SKY/WX    TMP DP  RH WIND       PRES   REMARKS
GALLUP         FAIR      78  51  38 VRB3      30.31F
GRANTS         FAIR      79  54  41 N5        30.32F
SILVER CITY      N/A     84  48  28 W7        30.26F

$$
NMZ407-409-411-412-272200-
SOUTHERN DESERTS

CITY           SKY/WX    TMP DP  RH WIND       PRES   REMARKS
DEMING         FAIR      90  54  29 W6        30.15F
ALAMOGORDO     FAIR      91  50  24 W6        30.13F
T OR C         PTSUNNY   83  53  35 W20G26    30.19S

$$
NMZ519>523-272200-
CENTRAL VALLEYS/CENTRAL HIGHLANDS

CITY           SKY/WX    TMP DP  RH WIND       PRES   REMARKS
ALBUQUERQUE    PTSUNNY   85  52  32 W9G18     30.22F
DOUBLE EAGLE   PTSUNNY   77  55  47 SW9       30.27F
MORIARTY ARPT  FAIR      79  48  33 W15G22    30.28F
CLINES CORNERS FAIR      79  51  37 W20G28    30.30F
BELEN          FAIR      85  50  30 W3        30.20F
SOCORRO        NOT AVBL

$$
NMZ524>526-539-540-272200-
SOUTHCENTRAL MOUNTAINS

CITY           SKY/WX    TMP DP  RH WIND       PRES   REMARKS
RUIDOSO        PTSUNNY   75  54  46 MISG      30.35F

$$
NMZ527>531-272200-
NORTHEAST HIGHLANDS/NORTHEAST PLAINS

CITY           SKY/WX    TMP DP  RH WIND       PRES   REMARKS
LAS VEGAS      PTSUNNY   83  46  27 NW18G28   30.26F
RATON          FAIR      85  44  23 W13G24    30.17F
CLAYTON        FAIR      87  51  28 SW5       30.09F

$$
NMZ532>537-272200-
EASTCENTRAL PLAINS

CITY           SKY/WX    TMP DP  RH WIND       PRES   REMARKS
TUCUMCARI      FAIR      95  50  21 W16G25    30.05F
CANNON AFB     PTSUNNY   90  50  25 W10       30.10F
CLOVIS AIRPORT FAIR      90  52  27 SW5       30.12F

$$
NMZ028-029-538-272200-
SOUTHEAST PLAINS

CITY           SKY/WX    TMP DP  RH WIND       PRES   REMARKS
ROSWELL        PTSUNNY   81  58  45 NW21G28   30.10F
ARTESIA        FAIR      95  54  24 VRB6      30.08F
CARLSBAD       NOT AVBL


$$



USA.gov is the U.S. government's official web portal to all federal, state and local government web resources and services.